Weather History for Peoria, IL

Change the Weather History Date:

Wednesday, March 5, 2014

  Actual Average Record
Temperature  
Mean Temperature 25 °F 36 °F  
Max Temperature 28 °F 45 °F 70 °F (1946)
Min Temperature 22 °F 27 °F -8 °F (1960)
Degree Days  
Heating Degree Days 40 29  
Month to date heating degree days 240 148  
Since 1 July heating degree days 5419 4664  
Cooling Degree Days 0 0  
Month to date cooling degree days 0 0  
Year to date cooling degree days 0 0  
Moisture  
Dew Point 17 °F    
Average Humidity 69    
Maximum Humidity 81    
Minimum Humidity 57    
Precipitation  
Precipitation 0.09 in 0.08 in 1.30 in (1894)
Month to date precipitation 0.41 0.41  
Year to date precipitation 5.28 3.98  
Snow  
Snow 1.20 in 0.20 in 3.40 in (1915)
Month to date snowfall 4.4 0.7  
Since 1 July snowfall 54.6 22.0  
Snow Depth 4.00 in    
Sea Level Pressure  
Sea Level Pressure 30.35 in    
Wind  
Wind Speed 14 mph (ENE)    
Max Wind Speed 23 mph    
Max Gust Speed 30 mph    
Visibility 7 miles    
Events Snow    
T = Trace of Precipitation, MM = Missing Value Source: NWS Daily Summary

Daily Weather History Graph

Daily Weather History Graph

Search for Another Location

Airport:

Trip Planner

Search our weather history database for the weather conditions in past years. The results will help you decide how hot, cold, wet, or windy it might be!

Date:

Astronomy

Mar. 05, 2014 Rise Set
Actual Time 6:26 AM CST 5:54 PM CST
Civil Twilight 5:59 AM CST 6:21 PM CST
Nautical Twilight 5:27 AM CST 6:53 PM CST
Astronomical Twilight 4:55 AM CST 7:25 PM CST
Moon 8:50 AM CST (3/5) 11:04 PM CST (3/5)
Length of Visible Light 12h 22m
Length of Day
11h 28m
Waxing Crescent, 23% of the Moon is Illuminated
Mar 5
Waxing Crescent
Mar 8
First Quarter
Mar 16
Full
Mar 23
Last Quarter
Mar 30
New

Hourly Weather History & Observations

Time (CST) Temp. Windchill Dew Point Humidity Pressure Visibility Wind Dir Wind Speed Gust Speed Precip Events Conditions
12:54 AM 24.1 °F 12.0 °F 14.0 °F 65% 30.23 in 10.0 mi ENE 13.8 mph - N/A   Overcast
1:54 AM 24.1 °F 13.7 °F 14.0 °F 65% 30.24 in 10.0 mi ENE 10.4 mph - N/A   Overcast
2:54 AM 24.1 °F 12.0 °F 14.0 °F 65% 30.24 in 10.0 mi ENE 13.8 mph - N/A   Mostly Cloudy
3:54 AM 24.1 °F 13.1 °F 12.9 °F 62% 30.25 in 10.0 mi East 11.5 mph - N/A   Clear
4:54 AM 23.0 °F 12.4 °F 14.0 °F 68% 30.27 in 10.0 mi ENE 10.4 mph - N/A   Mostly Cloudy
5:54 AM 23.0 °F 11.7 °F 12.0 °F 63% 30.29 in 10.0 mi ENE 11.5 mph - N/A   Scattered Clouds
6:54 AM 23.0 °F 10.6 °F 12.0 °F 63% 30.32 in 10.0 mi ENE 13.8 mph - N/A   Mostly Cloudy
7:54 AM 23.0 °F 9.6 °F 12.0 °F 63% 30.34 in 10.0 mi ENE 16.1 mph 23.0 mph N/A   Overcast
8:54 AM 24.1 °F 10.6 °F 12.0 °F 60% 30.36 in 10.0 mi East 17.3 mph 26.5 mph N/A   Clear
9:54 AM 26.1 °F 13.6 °F 14.0 °F 60% 30.36 in 10.0 mi East 16.1 mph 26.5 mph N/A   Partly Cloudy
10:54 AM 27.0 °F 15.2 °F 17.1 °F 66% 30.37 in 10.0 mi East 15.0 mph 23.0 mph N/A   Scattered Clouds
11:54 AM 28.0 °F 15.7 °F 18.0 °F 66% 30.37 in 10.0 mi ENE 17.3 mph - N/A   Overcast
12:54 PM 27.0 °F 15.2 °F 18.0 °F 69% 30.36 in 10.0 mi East 15.0 mph - N/A   Overcast
1:37 PM 27.0 °F 15.6 °F 19.0 °F 72% 30.33 in 2.0 mi East 13.8 mph - 0.00 in Snow Light Snow
1:49 PM 26.6 °F 14.3 °F 19.4 °F 74% 30.33 in 2.0 mi ENE 16.1 mph - 0.00 in Snow Light Snow
1:54 PM 26.1 °F 13.6 °F 19.9 °F 78% 30.37 in 2.0 mi ENE 16.1 mph - 0.00 in Snow Light Snow
2:22 PM 26.1 °F 14.5 °F 19.0 °F 75% 30.34 in 3.0 mi ENE 13.8 mph - 0.00 in Snow Light Snow
2:31 PM 26.1 °F 15.6 °F 19.9 °F 78% 30.34 in 2.5 mi ENE 11.5 mph - 0.00 in Snow Light Snow
2:54 PM 26.1 °F 14.5 °F 19.0 °F 75% 30.37 in 2.5 mi NE 13.8 mph - 0.00 in Snow Light Snow
3:12 PM 26.1 °F 13.1 °F 19.0 °F 75% 30.34 in 2.5 mi ENE 17.3 mph - 0.00 in Snow Light Snow
3:20 PM 25.0 °F 12.2 °F 19.0 °F 78% 30.34 in 4.0 mi ENE 16.1 mph - 0.00 in Snow Light Snow
3:54 PM 24.1 °F 11.0 °F 18.0 °F 77% 30.38 in 3.0 mi ENE 16.1 mph - 0.00 in Snow Light Snow
4:02 PM 24.1 °F 11.0 °F 18.0 °F 77% 30.35 in 2.5 mi ENE 16.1 mph - 0.00 in Snow Light Snow
4:14 PM 24.1 °F 11.0 °F 18.0 °F 77% 30.35 in 1.2 mi ENE 16.1 mph - 0.00 in Snow Light Snow
4:22 PM 24.1 °F 13.1 °F 19.0 °F 81% 30.35 in 0.8 mi ENE 11.5 mph - 0.00 in Snow Light Snow
4:31 PM 23.0 °F 10.1 °F 18.0 °F 81% 30.35 in 1.0 mi ENE 15.0 mph - 0.00 in Snow Light Snow
4:42 PM 23.0 °F 10.6 °F 18.0 °F 81% 30.35 in 2.0 mi East 13.8 mph - 0.00 in Snow Light Snow
4:54 PM 23.0 °F 10.6 °F 18.0 °F 81% 30.38 in 2.5 mi ENE 13.8 mph - 0.00 in Snow Light Snow
4:59 PM 23.0 °F 9.6 °F 18.0 °F 81% 30.35 in 3.0 mi ENE 16.1 mph - 0.00 in Snow Light Snow
5:54 PM 23.0 °F 10.1 °F 17.1 °F 78% 30.40 in 7.0 mi ENE 15.0 mph 25.3 mph 0.00 in   Overcast
6:54 PM 23.0 °F 9.6 °F 17.1 °F 78% 30.40 in 7.0 mi East 16.1 mph 23.0 mph 0.00 in   Overcast
7:54 PM 23.0 °F 10.1 °F 17.1 °F 78% 30.41 in 9.0 mi ENE 15.0 mph 24.2 mph N/A   Overcast
8:30 PM 23.0 °F 10.6 °F 17.1 °F 78% 30.39 in 8.0 mi ENE 13.8 mph - N/A   Overcast
8:49 PM 23.0 °F 11.1 °F 17.6 °F 80% 30.39 in 9.0 mi ENE 12.7 mph - N/A   Overcast
8:54 PM 23.0 °F 9.6 °F 17.1 °F 78% 30.42 in 9.0 mi ENE 16.1 mph - N/A   Overcast
9:05 PM 23.0 °F 9.6 °F 17.1 °F 78% 30.39 in 9.0 mi ENE 16.1 mph - N/A   Overcast
9:15 PM 23.0 °F 9.2 °F 17.1 °F 78% 30.38 in 9.0 mi ENE 17.3 mph - N/A   Overcast
9:26 PM 23.0 °F 10.6 °F 17.1 °F 78% 30.39 in 9.0 mi ENE 13.8 mph - N/A   Overcast
9:54 PM 23.0 °F 11.7 °F 17.1 °F 78% 30.42 in 9.0 mi ENE 11.5 mph - N/A   Overcast
10:54 PM 21.9 °F 10.4 °F 16.0 °F 78% 30.41 in 9.0 mi East 11.5 mph - N/A   Overcast
11:34 PM 21.9 °F 9.8 °F 16.0 °F 78% 30.37 in 9.0 mi ENE 12.7 mph - N/A   Overcast
11:54 PM 21.9 °F 10.4 °F 16.0 °F 78% 30.40 in 9.0 mi East 11.5 mph - N/A   Overcast